Springfield, MO

2:28 PM CDT on June 27, 2017 (GMT -0500)
Springfield-Branson Regional

Weather History for KSGF - December, 2012

Change the Weather History Date:

Tuesday, December 18, 2012

  Actual Average Record
Temperature  
Mean Temperature 45 °F 34 °F  
Max Temperature 59 °F 44 °F 70 °F (1939)
Min Temperature 31 °F 24 °F -3 °F (1901)
Degree Days  
Heating Degree Days 20 31  
Month to date heating degree days 330 519  
Since 1 July heating degree days 1247 1398  
Cooling Degree Days 0 0  
Month to date cooling degree days 2 0  
Year to date cooling degree days 1766 1389  
Moisture  
Dew Point 33 °F    
Average Humidity 68    
Maximum Humidity 96    
Minimum Humidity 40    
Precipitation  
Precipitation 0.00 in 0.09 in 4.96 in (1895)
Month to date precipitation 0.85 1.91  
Year to date precipitation 30.69 44.44  
Snow  
Snow 0.00 in - - ()
Month to date snowfall 0.0  
Since 1 July snowfall 0.0  
Snow Depth 0.00 in    
Sea Level Pressure  
Sea Level Pressure 29.79 in    
Wind  
Wind Speed 9 mph (SSW)    
Max Wind Speed 21 mph    
Max Gust Speed 28 mph    
Visibility 9 miles    
Events      
T = Trace of Precipitation, MM = Missing Value Source: NWS Daily Summary

Daily Weather History Graph

Daily Weather History Graph

Search for Another Location

Airport or City:

Trip Planner

Search our weather history database for the weather conditions in past years. The results will help you decide how hot, cold, wet, or windy it might be!

Date:

Astronomy

Dec. 18, 2012 Rise Set
Actual Time 7:22 AM CST 4:58 PM CST
Civil Twilight 6:53 AM CST 5:27 PM CST
Nautical Twilight 6:20 AM CST 6:00 PM CST
Astronomical Twilight 5:48 AM CST 6:32 PM CST
Moon 11:09 AM CST (12/18) 11:17 PM CST (12/18)
Length of Visible Light 10h 34m
Length of Day
9h 36m
Waxing Crescent, 35% of the Moon is Illuminated
Dec 18
Waxing Crescent
Dec 19
First Quarter
Dec 28
Full
Jan 4
Last Quarter
Jan 11
New

Hourly Weather History & Observations

Time (CST) Temp. Windchill Dew Point Humidity Pressure Visibility Wind Dir Wind Speed Gust Speed Precip Events Conditions
12:52 AM 33.1 °F 26.1 °F 32.0 °F 96% 29.79 in 6.0 mi South 8.1 mph - N/A   Clear
1:52 AM 34.0 °F 26.6 °F 32.0 °F 92% 29.78 in 5.0 mi SSE 9.2 mph - N/A   Clear
2:52 AM 35.1 °F 26.9 °F 32.0 °F 89% 29.78 in 6.0 mi SSE 11.5 mph - N/A   Clear
3:52 AM 36.0 °F 27.1 °F 32.0 °F 86% 29.75 in 8.0 mi South 13.8 mph - N/A   Clear
4:52 AM 35.1 °F 25.9 °F 30.9 °F 85% 29.75 in 9.0 mi SSE 13.8 mph - N/A   Clear
5:52 AM 35.1 °F 26.4 °F 30.9 °F 85% 29.74 in 9.0 mi SSE 12.7 mph - N/A   Clear
6:52 AM 35.1 °F 25.9 °F 30.9 °F 85% 29.75 in 10.0 mi SSE 13.8 mph - N/A   Clear
7:52 AM 35.1 °F 26.9 °F 30.9 °F 85% 29.77 in 10.0 mi SSE 11.5 mph - N/A   Clear
8:52 AM 39.0 °F 32.8 °F 33.1 °F 79% 29.77 in 10.0 mi SSE 9.2 mph - N/A   Clear
9:52 AM 44.1 °F 38.6 °F 36.0 °F 73% 29.78 in 10.0 mi South 10.4 mph - N/A   Clear
10:52 AM 48.9 °F - 36.0 °F 61% 29.77 in 10.0 mi SSW 10.4 mph - N/A   Clear
11:52 AM 57.0 °F - 34.0 °F 42% 29.76 in 10.0 mi WSW 21.9 mph 27.6 mph N/A   Clear
12:52 PM 57.0 °F - 35.1 °F 44% 29.75 in 10.0 mi WSW 15.0 mph 20.7 mph N/A   Clear
1:52 PM 57.9 °F - 35.1 °F 42% 29.75 in 10.0 mi West 9.2 mph - N/A   Clear
2:52 PM 57.9 °F - 34.0 °F 41% 29.76 in 10.0 mi WSW 10.4 mph - N/A   Clear
3:52 PM 57.0 °F - 35.1 °F 44% 29.77 in 10.0 mi WSW 5.8 mph - N/A   Clear
4:02 PM 55.9 °F - 36.0 °F 47% 29.77 in 10.0 mi West 4.6 mph - N/A   Partly Cloudy
4:52 PM 53.1 °F - 35.1 °F 50% 29.80 in 10.0 mi WNW 4.6 mph - N/A   Clear
5:52 PM 46.0 °F 43.1 °F 34.0 °F 63% 29.81 in 10.0 mi NW 5.8 mph - N/A   Clear
6:52 PM 46.0 °F 44.8 °F 34.0 °F 63% 29.84 in 10.0 mi North 3.5 mph - N/A   Clear
7:52 PM 36.0 °F - 30.0 °F 79% 29.86 in 10.0 mi Calm Calm - N/A   Clear
8:52 PM 36.0 °F - 30.0 °F 79% 29.86 in 10.0 mi Calm Calm - N/A   Clear
9:52 PM 33.1 °F - 28.9 °F 85% 29.87 in 10.0 mi Calm Calm - N/A   Clear
10:52 PM 33.1 °F 30.0 °F 28.9 °F 85% 29.87 in 10.0 mi Variable 3.5 mph - N/A   Clear
11:52 PM 39.0 °F 36.8 °F 32.0 °F 76% 29.86 in 10.0 mi ENE 3.5 mph - N/A   Clear